Location: B�rgermoos
(47.6500°N, 9.0667°E)
Time: 18:40:14
(UTC+00:00)

Tiros 1 - Pass Details

Date: 08 August 2021
Orbit: 630 x 663 km, 48.4° (Epoch: 20 September)

Event Time Altitude Azimuth Distance (km) Brightness Sun altitude
Rises 15:58:18 0° 249° (WSW) 2,989 11.8 27.0°
Reaches altitude 10° 16:00:39 10° 248° (WSW) 2,076 11.3 26.6°
Maximum altitude 16:05:26 78° 163° (SSE) 679 7.7 25.8°
Drops below altitude 10° 16:10:13 10° 78° (ENE) 2,067 9.3 25.0°
Sets 16:12:33 0° 77° (ENE) 2,975 10.0 24.6°
